Tiempo atmosférico en la estación meteorológica de Polinyà de Xúquer, València/Valencia (12 m.)



Fecha
DESCASC
Temp. máxima en grados centígrados (hora)
DESCASC
Temp. mínima en grados centígrados (hora)
DESCASC
Temp. media en grados centígrados
DESCASC
Racha de viento máxima en m/sg (hora)
DESCASC
Velocidad máxima media en intervalos de 10 minutos(hora)
DESCASC
Precipitaciones diarias en mm
DESCASC
Precipitaciones de 00:00 a 06:00 en mm
DESCASC
Precipitaciones de 06:00 a 12:00 en mm
DESCASC
Precipitaciones de 12:00 a 18:00 en mm
DESCASC
Precipitaciones de 18:00 a 24:00 en mm
DESCASC
02-04-2020 -- (--) -- (--) -- 0 (00:10) 0 (00:10) 0.3 0 0 0.1 0.2
01-04-2020 -- (--) -- (--) -- 0 (00:10) 0 (00:10) 2.5 1.5 0.2 0 0.8
31-03-2020 -- (--) -- (--) -- 5.56 (09:30) 2.5 (00:30) 11.5 4.8 6 0.1 0.6
30-03-2020 -- (--) -- (--) -- 8.89 (13:30) 5 (13:30) 1.4 0 0 0 1.4
29-03-2020 -- (--) -- (--) -- 8.06 (08:00) 4.17 (09:10) 0 0 0 0 0
28-03-2020 -- (--) -- (--) -- 3.89 (05:50) 1.94 (05:50) 0.1 0.1 0 0 0
27-03-2020 -- (--) -- (--) -- 4.72 (11:30) 2.5 (11:20) 11.9 0.1 2.3 9.4 0.1
26-03-2020 -- (--) -- (--) -- 10 (16:40) 5 (16:20) 0 0 0 0 0
25-03-2020 -- (--) -- (--) -- 8.61 (02:30) 3.61 (00:50) 26.3 9.7 16.5 0.1 0
24-03-2020 -- (--) -- (--) -- 13.06 (10:10) 7.22 (13:20) 8.1 0 8.1 0 0
23-03-2020 -- (--) -- (--) -- 10.28 (19:00) 5 (19:20) 1.5 1.2 0.1 0.2 0
22-03-2020 -- (--) -- (--) -- 5.56 (15:00) 3.06 (15:00) 28.9 3.4 0 2.1 23.4
21-03-2020 -- (--) -- (--) -- 6.67 (22:00) 2.5 (16:40) 12.5 0 0.7 0.2 11.6
20-03-2020 -- (--) -- (--) -- 7.78 (12:00) 3.89 (15:20) 0 0 0 0 0
19-03-2020 -- (--) -- (--) -- 8.06 (12:30) 4.17 (11:40) 0 0 0 0 0
18-03-2020 -- (--) -- (--) -- 9.44 (13:00) 5 (13:40) 0 0 0 0 0
17-03-2020 -- (--) -- (--) -- 10.56 (18:10) 5.28 (17:00) 18.6 12.4 3.1 3 0.1
16-03-2020 16 (09:50) 7.8 (00:00) 11.9 7.22 (21:10) 3.61 (20:30) 7.3 0 0.6 4 2.7
15-03-2020 18.3 (13:20) 10.9 (00:00) 14.6 9.44 (15:50) 5.28 (15:50) 0 0 0 0 0
14-03-2020 -- (--) -- (--) -- -- (--) -- (--) -- -- 0 0 0
13-03-2020 -- (--) -- (--) -- -- (--) -- (--) -- -- -- -- --
12-03-2020 21.4 (13:10) 7 (00:00) 14.2 5.56 (14:40) 3.33 (14:40) 0 0 0 0 0
11-03-2020 24 (12:20) 6.8 (00:00) 15.4 8.33 (15:40) 5 (15:40) 0 0 0 0 0
10-03-2020 21.9 (16:00) 5.9 (00:00) 13.9 7.22 (17:20) 3.33 (18:10) 0 0 0 0 0
09-03-2020 23.4 (17:20) 10.3 (00:00) 16.8 8.33 (09:40) 3.06 (10:10) 0 0 0 0 0
08-03-2020 22.3 (14:50) 8.5 (00:00) 15.4 7.78 (15:30) 3.61 (15:40) 0 0 0 0 0
07-03-2020 19.4 (15:40) 8.1 (00:00) 13.8 6.67 (16:50) 3.06 (06:30) 0 0 0 0 0
06-03-2020 18.9 (13:30) 10 (00:00) 14.4 10.83 (11:50) 3.61 (07:00) 0 0 0 0 0
05-03-2020 22.8 (13:40) 13.4 (00:00) 18.1 10.56 (12:30) 3.61 (14:20) 0 0 0 0 0

Gráficas

Temp. máximas Temp. mínimas Temp. medias Precipitaciones Rachas de viento máximas Velocidades máximas media en intervalos de 10 minutos

Datos horarios

Fecha y hora oficial Temperatura (ºC) Velocidad del viento (km/h) Dirección del viento Racha (km/h) Dirección de racha Precipitación (mm) Presión (hPa) Tendencia (hPa) Humedad (%)
2020-04-03 23:00:00 -- 0 Calma -- -- 0 -- -- 63
2020-04-03 22:00:00 -- 0 Calma -- -- 0 -- -- 64
2020-04-03 21:00:00 -- 0 Calma -- -- 0 -- -- 54
2020-04-03 20:00:00 -- 0 Calma -- -- 0 -- -- 46
2020-04-03 19:00:00 -- 0 Calma -- -- 0 -- -- 44
2020-04-03 18:00:00 -- 0 Calma -- -- 0 -- -- 45
2020-04-03 17:00:00 -- 0 Calma -- -- 0 -- -- 44
2020-04-03 16:00:00 -- 0 Calma -- -- 0 -- -- 44
2020-04-03 15:00:00 -- 0 Calma -- -- 0 -- -- 43
2020-04-03 14:00:00 -- 0 Calma -- -- 0 -- -- 35
2020-04-03 13:00:00 -- 0 Calma -- -- 0.1 -- -- 41
2020-04-03 12:00:00 -- 0 Calma -- -- 0 -- -- 51
2020-04-03 11:00:00 -- 0 Calma -- -- 0 -- -- 65
2020-04-03 10:00:00 -- 0 Calma -- -- 0 -- -- 76
2020-04-03 09:00:00 -- 0 Calma -- -- 0 -- -- 80
2020-04-03 08:00:00 -- 0 Calma -- -- 0 -- -- 81
2020-04-03 07:00:00 -- 0 Calma -- -- 0 -- -- 81
2020-04-03 06:00:00 -- 0 Calma -- -- 0 -- -- 81
2020-04-03 05:00:00 -- 0 Calma -- -- 0 -- -- 81
2020-04-03 04:00:00 -- 0 Calma -- -- 0 -- -- 81
2020-04-03 03:00:00 -- 0 Calma -- -- 0.4 -- -- 80
2020-04-03 02:00:00 -- 0 Calma -- -- 0.1 -- -- 80
2020-04-03 01:00:00 -- 0 Calma -- -- 0.3 -- -- 79
2020-04-03 00:00:00 -- 0 Calma -- -- 0 -- -- 78
2020-04-02 23:00:00 -- 0 Calma -- -- 0 -- -- 78
2020-04-02 22:00:00 -- 0 Calma -- -- 0.2 -- -- 78
2020-04-02 21:00:00 -- 0 Calma -- -- 0 -- -- 72
2020-04-02 20:00:00 -- 0 Calma -- -- 0 -- -- 66
2020-04-02 19:00:00 -- 0 Calma -- -- 0 -- -- 63
2020-04-02 18:00:00 -- 0 Calma -- -- 0 -- -- 60
2020-04-02 17:00:00 -- 0 Calma -- -- 0 -- -- 58
2020-04-02 16:00:00 -- 0 Calma -- -- 0 -- -- 55
2020-04-02 15:00:00 -- 0 Calma -- -- 0 -- -- 58
2020-04-02 14:00:00 -- 0 Calma -- -- 0 -- -- 60
2020-04-02 13:00:00 -- 0 Calma -- -- 0.1 -- -- 68
2020-04-02 12:00:00 -- 0 Calma -- -- 0 -- -- 74
2020-04-02 11:00:00 -- 0 Calma -- -- 0 -- -- 69
2020-04-02 10:00:00 -- 0 Calma -- -- 0 -- -- 77
2020-04-02 09:00:00 -- 0 Calma -- -- 0 -- -- 78
2020-04-02 08:00:00 -- 0 Calma -- -- 0 -- -- 77
2020-04-02 07:00:00 -- 0 Calma -- -- 0 -- -- 78
2020-04-02 06:00:00 -- 0 Calma -- -- 0 -- -- 77
2020-04-02 05:00:00 -- 0 Calma -- -- 0 -- -- 77
2020-04-02 04:00:00 -- 0 Calma -- -- 0 -- -- 77
2020-04-02 03:00:00 -- 0 Calma -- -- 0 -- -- 77
2020-04-02 02:00:00 -- 0 Calma -- -- 0 -- -- 77
2020-04-02 01:00:00 -- 0 Calma -- -- 0 -- -- 77
2020-04-02 00:00:00 -- 0 Calma -- -- 0.2 -- -- 77
2020-04-01 23:00:00 -- 0 Calma -- -- 0.6 -- -- 76
2020-04-01 22:00:00 -- 0 Calma -- -- 0 -- -- 66
2020-04-01 21:00:00 -- 0 Calma -- -- 0 -- -- 68
2020-04-01 20:00:00 -- 0 Calma -- -- 0 -- -- 65
2020-04-01 19:00:00 -- 0 Calma -- -- 0 -- -- 58
2020-04-01 18:00:00 -- 0 Calma -- -- 0 -- -- 60
2020-04-01 17:00:00 -- 0 Calma -- -- 0 -- -- 56
2020-04-01 16:00:00 -- 0 Calma -- -- 0 -- -- 51
2020-04-01 15:00:00 -- 0 Calma -- -- 0 -- -- 37
2020-04-01 14:00:00 -- 0 Calma -- -- 0 -- -- 43
2020-04-01 13:00:00 -- 0 Calma -- -- 0 -- -- 49
2020-04-01 12:00:00 -- 0 Calma -- -- 0 -- -- 55
2020-04-01 11:00:00 -- 0 Calma -- -- 0 -- -- 65
2020-04-01 10:00:00 -- 0 Calma -- -- 0 -- -- 78
2020-04-01 09:00:00 -- 0 Calma -- -- 0 -- -- 82
2020-04-01 08:00:00 -- 0 Calma -- -- 0.1 -- -- 82
2020-04-01 07:00:00 -- 0 Calma -- -- 0.1 -- -- 82
2020-04-01 06:00:00 -- 0 Calma -- -- 0 -- -- 82
2020-04-01 05:00:00 -- 0 Calma -- -- 0 -- -- 82
2020-04-01 04:00:00 -- 0 Calma -- -- 0 -- -- 82
2020-04-01 03:00:00 -- 0 Calma -- -- 0.2 -- -- 82
2020-04-01 02:00:00 -- 0 Calma -- -- 0.2 -- -- 82
2020-04-01 01:00:00 -- 0 Calma -- -- 1.1 -- -- 82
2020-04-01 00:00:00 -- 0 Calma -- -- 0.6 -- -- 78
2020-03-31 23:00:00 -- 0 Calma -- -- 0 -- -- 74
2020-03-31 22:00:00 -- 0 Calma -- -- 0 -- -- 71
2020-03-31 21:00:00 -- 0 Calma -- -- 0 -- -- 70
2020-03-31 20:00:00 -- 0 Calma -- -- 0 -- -- 68
2020-03-31 19:00:00 -- 0 Calma -- -- 0 -- -- 65
2020-03-31 18:00:00 -- 0 Calma -- -- 0 -- -- 72
2020-03-31 17:00:00 -- 0 Calma -- -- 0 -- -- 72
2020-03-31 16:00:00 -- 0 Calma -- -- 0 -- -- 75
2020-03-31 15:00:00 -- 0 Calma -- -- 0 -- -- 76
2020-03-31 14:00:00 -- 0 Calma -- -- 0 -- -- 77
2020-03-31 13:00:00 -- 0 Calma -- -- 0.1 -- -- 78
2020-03-31 12:00:00 -- 0 Calma -- -- 0 -- -- 82
2020-03-31 11:00:00 -- 0 Calma -- -- 1.5 -- -- 83
2020-03-31 10:00:00 -- 0 Calma 20 Sudoeste 2.2 -- -- 83
2020-03-31 09:00:00 -- 0 Calma 18 Sudoeste 1.7 -- -- 83
2020-03-31 08:00:00 -- 0 Calma 12 Sudoeste 0.3 -- -- 82
2020-03-31 07:00:00 -- 0 Calma 11 Sudoeste 0.3 -- -- 82
2020-03-31 06:00:00 -- 0 Calma 6 Sudoeste 0 -- -- 82
2020-03-31 05:00:00 -- 0 Calma 12 Norte 0.1 -- -- 82
2020-03-31 04:00:00 -- 0 Calma 11 Norte 0.4 -- -- 82
2020-03-31 03:00:00 -- 0 Calma 6 Norte 0.7 -- -- 82
2020-03-31 02:00:00 -- 0 Calma 17 Nordeste 1.9 -- -- 82
2020-03-31 01:00:00 -- 5 Nordeste 19 Nordeste 1.7 -- -- 82
2020-03-31 00:00:00 -- 8 Nordeste 17 Nordeste 0.6 -- -- 82
2020-03-30 23:00:00 -- 10 Nordeste 23 Nordeste 0.1 -- -- 80
2020-03-30 22:00:00 -- 9 Nordeste 19 Nordeste 0.3 -- -- 75
2020-03-30 21:00:00 -- 7 Nordeste 17 Nordeste 0 -- -- 68
2020-03-30 20:00:00 -- 9 Nordeste 17 Nordeste 0.1 -- -- 69
2020-03-30 19:00:00 -- 9 Nordeste 21 Este 0.3 -- -- 68
2020-03-30 18:00:00 -- 11 Nordeste 29 Nordeste 0 -- -- 56
2020-03-30 17:00:00 -- 16 Nordeste 28 Nordeste 0 -- -- 50
2020-03-30 16:00:00 -- 16 Nordeste 30 Este 0 -- -- 50
2020-03-30 15:00:00 -- 17 Nordeste 29 Este 0 -- -- 46
2020-03-30 14:00:00 -- 16 Este 32 Este 0 -- -- 50
2020-03-30 13:00:00 -- 14 Este 28 Este 0 -- -- 53
2020-03-30 12:00:00 -- 10 Este 19 Este 0 -- -- 62
2020-03-30 11:00:00 -- 9 Este 17 Este 0 -- -- 64
2020-03-30 10:00:00 -- 9 Este 15 Nordeste 0 -- -- 65
2020-03-30 09:00:00 -- 6 Nordeste 8 Este 0 -- -- 78
2020-03-30 08:00:00 -- 4 Este 9 Este 0 -- -- 77
2020-03-30 07:00:00 -- 6 Este 8 Este 0 -- -- 77
2020-03-30 06:00:00 -- 0 Calma 8 Sudeste 0 -- -- 74
2020-03-30 05:00:00 -- 4 Sudeste 10 Sudeste 0 -- -- 72
2020-03-30 04:00:00 -- 0 Calma 5 Sudeste 0 -- -- 73
2020-03-30 03:00:00 -- 0 Calma 5 Noroeste 0 -- -- 71
2020-03-30 02:00:00 -- 0 Calma 11 Noroeste 0 -- -- 66
2020-03-30 01:00:00 -- 0 Calma 15 Sudoeste 0 -- -- 47
2020-03-30 00:00:00 -- 8 Sudoeste 22 Sudoeste 0 -- -- 41
2020-03-29 23:00:00 -- 10 Sudoeste 22 Sudoeste 0 -- -- 40
2020-03-29 22:00:00 -- 10 Sudoeste 17 Sudoeste 0 -- -- 39
2020-03-29 21:00:00 -- 6 Sudoeste 12 Sudoeste 0 -- -- 40
2020-03-29 20:00:00 -- 0 Calma 14 Sudoeste 0 -- -- 36
2020-03-29 19:00:00 -- 5 Sudoeste 21 Este 0 -- -- 31
2020-03-29 18:00:00 -- 12 Este 27 Sudeste 0 -- -- 37
2020-03-29 17:00:00 -- 13 Este 29 Este 0 -- -- 37
2020-03-29 16:00:00 -- 12 Este 25 Este 0 -- -- 35
2020-03-29 15:00:00 -- 0 Calma 21 Sudoeste 0 -- -- 29
2020-03-29 14:00:00 -- 9 Sudoeste 24 Sudoeste 0 -- -- 31
2020-03-29 13:00:00 -- 8 Sudoeste 21 Sudoeste 0 -- -- 35
2020-03-29 12:00:00 -- 10 Sudoeste 24 Oeste 0 -- -- 38
2020-03-29 11:00:00 -- 12 Sudoeste 25 Sudoeste 0 -- -- 42
2020-03-29 10:00:00 -- 13 Sudoeste 28 Sudoeste 0 -- -- 50
2020-03-29 09:00:00 -- 14 Sudoeste 28 Sudoeste 0 -- -- 54
2020-03-29 08:00:00 -- 14 Sudoeste 29 Sudoeste 0 -- -- 55
2020-03-29 07:00:00 -- 10 Sudoeste 19 Sudoeste 0 -- -- 57
2020-03-29 06:00:00 -- 11 Sudoeste 21 Sudoeste 0 -- -- 57
2020-03-29 05:00:00 -- 10 Sudoeste 20 Sudoeste 0 -- -- 60
2020-03-29 03:00:00 -- 0 Calma -- -- 0 -- -- 63
2020-03-29 01:00:00 -- 0 Calma -- -- 0 -- -- 63
2020-03-29 00:00:00 -- 0 Calma -- -- 0 -- -- 62
2020-03-28 23:00:00 -- 0 Calma -- -- 0 -- -- 64
2020-03-28 22:00:00 -- 0 Calma -- -- 0 -- -- 72
2020-03-28 21:00:00 -- 0 Calma -- -- 0 -- -- 72
2020-03-28 20:00:00 -- 0 Calma -- -- 0 -- -- 64
2020-03-28 19:00:00 -- 0 Calma -- -- 0 -- -- 44
2020-03-28 18:00:00 -- 0 Calma -- -- 0 -- -- 38
2020-03-28 17:00:00 -- 0 Calma -- -- 0 -- -- 35
2020-03-28 16:00:00 -- 0 Calma -- -- 0 -- -- 35
2020-03-28 15:00:00 -- 0 Calma -- -- 0 -- -- 36
2020-03-28 14:00:00 -- 0 Calma -- -- 0 -- -- 36
2020-03-28 13:00:00 -- 0 Calma -- -- 0 -- -- 38
2020-03-28 12:00:00 -- 0 Calma -- -- 0 -- -- 41
2020-03-28 11:00:00 -- 0 Calma -- -- 0 -- -- 48
2020-03-28 10:00:00 -- 0 Calma -- -- 0 -- -- 57
2020-03-28 09:00:00 -- 0 Calma -- -- 0 -- -- 73
2020-03-28 08:00:00 -- 0 Calma 10 Sudoeste 0 -- -- 81
2020-03-28 07:00:00 -- 0 Calma 11 Sudoeste 0 -- -- 81
2020-03-28 06:00:00 -- 3 Sudoeste 14 Sudoeste 0.1 -- -- 82
2020-03-28 05:00:00 -- 0 Calma 12 Sudoeste 0 -- -- 81
2020-03-28 04:00:00 -- 0 Calma 9 Sudoeste 0 -- -- 81
2020-03-28 03:00:00 -- 2 Sudoeste 8 Sudoeste 0 -- -- 82
2020-03-28 02:00:00 -- 0 Calma -- -- 0 -- -- 82
2020-03-28 01:00:00 -- 0 Calma 11 Sudoeste 0 -- -- 81
2020-03-28 00:00:00 -- 0 Calma 12 Sudoeste 0 -- -- 82
2020-03-27 23:00:00 -- 5 Sudoeste 12 Sudoeste 0 -- -- 81
2020-03-27 22:00:00 -- 2 Sudoeste 9 Sudoeste 0 -- -- 82
2020-03-27 21:00:00 -- 0 Calma 8 Sudoeste 0 -- -- 82
2020-03-27 20:00:00 -- 0 Calma -- -- 0 -- -- 82
2020-03-27 19:00:00 -- 0 Calma 0 Calma 0.1 -- -- 81
2020-03-27 18:00:00 -- 0 Calma 6 Sudoeste 0 -- -- 81
2020-03-27 17:00:00 -- 0 Calma 4 Noroeste 0.2 -- -- 81
2020-03-27 16:00:00 -- 0 Calma 8 Noroeste 1.8 -- -- 81
2020-03-27 15:00:00 -- 0 Calma 4 Norte 3.8 -- -- 81
2020-03-27 14:00:00 -- 0 Calma 13 Noroeste 3.4 -- -- 81
2020-03-27 13:00:00 -- 4 Noroeste 15 Norte 0.2 -- -- 81
2020-03-27 12:00:00 -- 8 Sudoeste 17 Sudoeste 1.7 -- -- 81
2020-03-27 11:00:00 -- 5 Sudoeste 14 Sudoeste 0.2 -- -- 78
2020-03-27 10:00:00 -- 3 Norte 9 Norte 0 -- -- 77
2020-03-27 09:00:00 -- 0 Calma 6 Oeste 0 -- -- 78
2020-03-27 08:00:00 -- 4 Sudoeste 9 Sudoeste 0 -- -- 78
2020-03-27 07:00:00 -- 0 Calma 9 Sudoeste 0.4 -- -- 76
2020-03-27 06:00:00 -- 5 Sudoeste 13 Sudoeste 0.1 -- -- 73
2020-03-27 05:00:00 -- 0 Calma 10 Sudoeste 0 -- -- 74
2020-03-27 04:00:00 -- 6 Sudoeste 10 Sudoeste 0 -- -- 74
2020-03-27 03:00:00 -- 0 Calma 9 Norte 0 -- -- 72
2020-03-27 02:00:00 -- 3 Noroeste 8 Noroeste 0 -- -- 72
2020-03-27 01:00:00 -- 3 Norte 15 Norte 0 -- -- 72
2020-03-27 00:00:00 -- 9 Nordeste 21 Nordeste 0 -- -- 72
2020-03-26 23:00:00 -- 4 Nordeste 10 Nordeste 0 -- -- 73
2020-03-26 22:00:00 -- 6 Nordeste 13 Este 0 -- -- 72
2020-03-26 21:00:00 -- 0 Calma 9 Nordeste 0 -- -- 72
2020-03-26 20:00:00 -- 0 Calma 13 Este 0 -- -- 70
2020-03-26 19:00:00 -- 7 Sudeste 18 Este 0 -- -- 62
2020-03-26 18:00:00 -- 0 Calma 20 Este 0 -- -- 47
2020-03-26 17:00:00 -- 11 Este 36 Este 0 -- -- 41
2020-03-26 16:00:00 -- 14 Nordeste 29 Nordeste 0 -- -- 38
2020-03-26 15:00:00 -- 12 Nordeste 33 Nordeste 0 -- -- 34
2020-03-26 14:00:00 -- 8 Noroeste 32 Norte 0 -- -- 30
2020-03-26 13:00:00 -- 5 Noroeste 23 Noroeste 0 -- -- 36
2020-03-26 12:00:00 -- 2 Noroeste 14 Norte 0 -- -- 39
2020-03-26 11:00:00 -- 0 Calma -- -- 0 -- -- 50
2020-03-26 10:00:00 -- 0 Calma 9 Sudoeste 0 -- -- 62
2020-03-26 09:00:00 -- 0 Calma -- -- 0 -- -- 80
2020-03-26 08:00:00 -- 0 Calma -- -- 0 -- -- 82
2020-03-26 07:00:00 -- 0 Calma -- -- 0 -- -- 83
2020-03-26 06:00:00 -- 0 Calma -- -- 0 -- -- 83
2020-03-26 05:00:00 -- 0 Calma -- -- 0 -- -- 82
2020-03-26 04:00:00 -- 0 Calma -- -- 0 -- -- 82
2020-03-26 03:00:00 -- 0 Calma -- -- 0 -- -- 82
2020-03-26 02:00:00 -- 0 Calma -- -- 0 -- -- 81
2020-03-26 01:00:00 -- 0 Calma -- -- 0 -- -- 81
2020-03-26 00:00:00 -- 0 Calma -- -- 0 -- -- 81
2020-03-25 23:00:00 -- 0 Calma -- -- 0 -- -- 79
2020-03-25 22:00:00 -- 0 Calma -- -- 0 -- -- 78
2020-03-25 21:00:00 -- 0 Calma -- -- 0 -- -- 78
2020-03-25 20:00:00 -- 0 Calma -- -- 0 -- -- 75
2020-03-25 19:00:00 -- 0 Calma 5 Nordeste 0 -- -- 72
2020-03-25 18:00:00 -- 0 Calma 12 Este 0 -- -- 69
2020-03-25 17:00:00 -- 5 Nordeste 15 Nordeste 0 -- -- 67
2020-03-25 16:00:00 -- 7 Nordeste 13 Nordeste 0 -- -- 68
2020-03-25 15:00:00 -- 7 Nordeste 14 Nordeste 0 -- -- 71
2020-03-25 14:00:00 -- 3 Nordeste 17 Nordeste 0 -- -- 74
2020-03-25 13:00:00 -- 0 Calma -- -- 0.1 -- -- 82
2020-03-25 12:00:00 -- 0 Calma 15 Sudoeste 1.7 -- -- 82
2020-03-25 11:00:00 -- 8 Sudoeste 13 Sudoeste 4.1 -- -- 82
2020-03-25 10:00:00 -- 2 Sudoeste 10 Nordeste 2.5 -- -- 82
2020-03-25 09:00:00 -- 0 Calma 8 Sudoeste 3.3 -- -- 82
2020-03-25 08:00:00 -- 0 Calma 17 Este 4.9 -- -- 82
2020-03-25 07:00:00 -- 0 Calma 8 Sudoeste 0 -- -- 82
2020-03-25 06:00:00 -- 0 Calma 8 Noroeste 0.5 -- -- 82
2020-03-25 05:00:00 -- 0 Calma 10 Noroeste 1.7 -- -- 81
2020-03-25 04:00:00 -- 6 Nordeste 19 Nordeste 2.8 -- -- 81
2020-03-25 03:00:00 -- 0 Calma 31 Este 2.9 -- -- 79
2020-03-25 02:00:00 -- 4 Norte 23 Nordeste 0.3 -- -- 74
2020-03-25 01:00:00 -- 12 Nordeste 24 Nordeste 1.5 -- -- 72
2020-03-25 00:00:00 -- 10 Nordeste 23 Nordeste 0 -- -- 57
2020-03-24 23:00:00 -- 13 Nordeste 27 Este 0 -- -- 55
2020-03-24 22:00:00 -- 14 Nordeste 40 Nordeste 0 -- -- 57
2020-03-24 21:00:00 -- 15 Nordeste 30 Nordeste 0 -- -- 57
2020-03-24 20:00:00 -- 15 Nordeste 35 Nordeste 0 -- -- 58
2020-03-24 19:00:00 -- 17 Nordeste 37 Nordeste 0 -- -- 58
2020-03-24 18:00:00 -- 18 Nordeste 41 Nordeste 0 -- -- 60
2020-03-24 17:00:00 -- 21 Nordeste 42 Nordeste 0 -- -- 58
2020-03-24 16:00:00 -- 20 Nordeste 47 Nordeste 0 -- -- 60
2020-03-24 15:00:00 -- 22 Nordeste 45 Nordeste 0 -- -- 63
2020-03-24 14:00:00 -- 23 Nordeste 47 Nordeste 0 -- -- 63
2020-03-24 13:00:00 -- 22 Nordeste 40 Nordeste 0 -- -- 64
2020-03-24 12:00:00 -- 22 Nordeste 44 Nordeste 0 -- -- 69
2020-03-24 11:00:00 -- 22 Nordeste 47 Nordeste 0.3 -- -- 74
2020-03-24 10:00:00 -- 23 Nordeste 42 Nordeste 0.2 -- -- 75
2020-03-24 09:00:00 -- 23 Nordeste 43 Nordeste 4.7 -- -- 80
2020-03-24 08:00:00 -- 20 Nordeste 42 Nordeste 2.9 -- -- 79
2020-03-24 07:00:00 -- 22 Nordeste 40 Nordeste 0 -- -- 75
2020-03-24 06:00:00 -- 20 Nordeste 33 Nordeste 0 -- -- 75
2020-03-24 05:00:00 -- 18 Nordeste 33 Nordeste 0 -- -- 75
2020-03-24 04:00:00 -- 18 Nordeste 39 Nordeste 0 -- -- 77
2020-03-24 03:00:00 -- 17 Nordeste 32 Nordeste 0 -- -- 78
2020-03-24 02:00:00 -- 15 Nordeste 30 Nordeste 0 -- -- 78
2020-03-24 01:00:00 -- 14 Nordeste 26 Nordeste 0 -- -- 78
2020-03-24 00:00:00 -- 15 Nordeste 28 Nordeste 0 -- -- 78
2020-03-23 23:00:00 -- 15 Nordeste 27 Nordeste 0 -- -- 78
2020-03-23 22:00:00 -- 12 Nordeste 23 Norte 0 -- -- 78
2020-03-23 21:00:00 -- 14 Nordeste 27 Nordeste 0 -- -- 76
2020-03-23 20:00:00 -- 15 Nordeste 28 Nordeste 0 -- -- 74
2020-03-23 19:00:00 -- 15 Nordeste 37 Nordeste 0 -- -- 75
2020-03-23 18:00:00 -- 15 Nordeste 27 Nordeste 0 -- -- 74
2020-03-23 17:00:00 -- 14 Nordeste 27 Este 0 -- -- 70
2020-03-23 16:00:00 -- 16 Nordeste 28 Nordeste 0 -- -- 70
2020-03-23 15:00:00 -- 14 Nordeste 25 Nordeste 0.2 -- -- 71
2020-03-23 14:00:00 -- 14 Nordeste 23 Este 0 -- -- 68
2020-03-23 13:00:00 -- 5 Sudeste 24 Este 0 -- -- 63
2020-03-23 12:00:00 -- 0 Calma -- -- 0 -- -- 71
2020-03-23 11:00:00 -- 0 Calma -- -- 0.1 -- -- 80
2020-03-23 10:00:00 -- 0 Calma 10 Noroeste 0 -- -- 82
2020-03-23 09:00:00 -- 0 Calma 10 Norte 0 -- -- 83
2020-03-23 08:00:00 -- 0 Calma -- -- 0 -- -- 83
2020-03-23 07:00:00 -- 0 Calma -- -- 0 -- -- 83
2020-03-23 06:00:00 -- 0 Calma -- -- 0 -- -- 83
2020-03-23 05:00:00 -- 0 Calma 11 Nordeste 0 -- -- 83
2020-03-23 04:00:00 -- 6 Nordeste 13 Nordeste 0 -- -- 83
2020-03-23 03:00:00 -- 0 Calma 12 Este 0 -- -- 83
2020-03-23 02:00:00 -- 0 Calma -- -- 1.1 -- -- 83
2020-03-23 01:00:00 -- 0 Calma -- -- 0.1 -- -- 83
2020-03-23 00:00:00 -- 0 Calma 9 Este 2.7 -- -- 83
2020-03-22 23:00:00 -- 5 Nordeste 12 Este 5.6 -- -- 83
2020-03-22 22:00:00 -- 5 Nordeste 13 Nordeste 3.3 -- -- 83
2020-03-22 21:00:00 -- 4 Nordeste 17 Nordeste 10 -- -- 83
2020-03-22 20:00:00 -- 3 Nordeste 12 Nordeste 1.6 -- -- 81
2020-03-22 19:00:00 -- 6 Nordeste 14 Nordeste 0.2 -- -- 78
2020-03-22 18:00:00 -- 5 Nordeste 16 Este 1.8 -- -- 78
2020-03-22 17:00:00 -- 8 Este 17 Nordeste 0.1 -- -- 73
2020-03-22 16:00:00 -- 8 Este 18 Nordeste 0.2 -- -- 71
2020-03-22 15:00:00 -- 11 Nordeste 20 Nordeste 0 -- -- 70
2020-03-22 14:00:00 -- 10 Nordeste 19 Norte 0 -- -- 66
2020-03-22 13:00:00 -- 7 Nordeste 14 Nordeste 0 -- -- 64
2020-03-22 12:00:00 -- 3 Nordeste 11 Nordeste 0 -- -- 69
2020-03-22 11:00:00 -- 0 Calma -- -- 0 -- -- 79
2020-03-22 10:00:00 -- 0 Calma 9 Sudoeste 0 -- -- 82
2020-03-22 09:00:00 -- 3 Sudoeste 8 Sudoeste 0 -- -- 83
2020-03-22 08:00:00 -- 0 Calma 10 Sudoeste 0 -- -- 83
2020-03-22 07:00:00 -- 0 Calma -- -- 0 -- -- 83
2020-03-22 06:00:00 -- 0 Calma 6 Sudoeste 0 -- -- 83
2020-03-22 05:00:00 -- 5 Sudoeste 12 Sudoeste 0.4 -- -- 83
2020-03-22 04:00:00 -- 0 Calma 14 Sudoeste 2.4 -- -- 83
2020-03-22 03:00:00 -- 7 Sudoeste 16 Sudoeste 0.1 -- -- 83
2020-03-22 02:00:00 -- 4 Sudoeste 11 Sudoeste 0.2 -- -- 83
2020-03-22 01:00:00 -- 2 Sudoeste 10 Sudoeste 0.3 -- -- 83
2020-03-22 00:00:00 -- 2 Sudoeste 13 Sudoeste 2.3 -- -- 83
2020-03-21 23:00:00 -- 2 Sudoeste 23 Sudoeste 8.4 -- -- 83
2020-03-21 22:00:00 -- 9 Sudoeste 24 Sudoeste 0.9 -- -- 80
2020-03-21 21:00:00 -- 0 Calma -- -- 0 -- -- 77
2020-03-21 20:00:00 -- 0 Calma -- -- 0 -- -- 75
2020-03-21 19:00:00 -- 0 Calma -- -- 0 -- -- 73
2020-03-21 18:00:00 -- 4 Nordeste 15 Este 0 -- -- 70
2020-03-21 17:00:00 -- 8 Nordeste 17 Nordeste 0 -- -- 69
2020-03-21 16:00:00 -- 4 Nordeste 15 Nordeste 0 -- -- 71
2020-03-21 15:00:00 -- 0 Calma 12 Norte 0.2 -- -- 78
2020-03-21 14:00:00 -- 0 Calma 14 Nordeste 0 -- -- 77
2020-03-21 13:00:00 -- 5 Nordeste 18 Nordeste 0 -- -- 76
2020-03-21 12:00:00 -- 0 Calma 7 Noroeste 0.6 -- -- 80
2020-03-21 11:00:00 -- 0 Calma 11 Nordeste 0.1 -- -- 78
2020-03-21 10:00:00 -- 2 Nordeste 6 Nordeste 0 -- -- 72
2020-03-21 09:00:00 -- 0 Calma 2 Nordeste 0 -- -- 73
2020-03-21 08:00:00 -- 0 Calma -- -- 0 -- -- 75
2020-03-21 07:00:00 -- 0 Calma -- -- 0 -- -- 77
2020-03-21 06:00:00 -- 0 Calma 5 Sudoeste 0 -- -- 78
2020-03-21 05:00:00 -- 0 Calma 4 Sudoeste 0 -- -- 78
2020-03-21 04:00:00 -- 0 Calma 8 Norte 0 -- -- 78
2020-03-21 03:00:00 -- 3 Norte 7 Norte 0 -- -- 78
2020-03-21 02:00:00 -- 0 Calma -- -- 0 -- -- 78
2020-03-21 01:00:00 -- 0 Calma -- -- 0 -- -- 78
2020-03-21 00:00:00 -- 2 Sudeste 4 Este 0 -- -- 76
2020-03-20 23:00:00 -- 3 Este 11 Este 0 -- -- 75
2020-03-20 22:00:00 -- 5 Nordeste 14 Nordeste 0 -- -- 78
2020-03-20 21:00:00 -- 6 Nordeste 12 Nordeste 0 -- -- 78
2020-03-20 20:00:00 -- 5 Nordeste 14 Nordeste 0 -- -- 76
2020-03-20 19:00:00 -- 9 Nordeste 18 Nordeste 0 -- -- 70
2020-03-20 18:00:00 -- 11 Nordeste 21 Nordeste 0 -- -- 64
2020-03-20 17:00:00 -- 12 Nordeste 22 Nordeste 0 -- -- 63
2020-03-20 16:00:00 -- 10 Nordeste 22 Nordeste 0 -- -- 62
2020-03-20 15:00:00 -- 14 Nordeste 22 Nordeste 0 -- -- 58
2020-03-20 14:00:00 -- 13 Nordeste 21 Este 0 -- -- 59
2020-03-20 13:00:00 -- 10 Este 28 Nordeste 0 -- -- 60
2020-03-20 12:00:00 -- 13 Nordeste 28 Nordeste 0 -- -- 70
2020-03-20 11:00:00 -- -- -- 26 Nordeste 0 -- -- 69
2020-03-20 10:00:00 -0.3 13 Norte 25 Nordeste 0 -- -- 72
2020-03-20 09:00:00 0 10 Nordeste 19 Nordeste 0 -- -- 73
2020-03-20 08:00:00 -1.3 6 Nordeste 12 Nordeste 0 -- -- 79
2020-03-20 07:00:00 -2.1 0 Calma -- -- 0 -- -- 80
2020-03-20 06:00:00 -1.3 0 Calma 6 Nordeste 0 -- -- 80
2020-03-20 05:00:00 -0.9 0 Calma 6 Norte 0 -- -- 80
2020-03-20 04:00:00 -2.4 0 Calma -- -- 0 -- -- 80
2020-03-20 03:00:00 -1.3 0 Calma 7 Nordeste 0 -- -- 80
2020-03-20 02:00:00 2.3 6 Nordeste 9 Nordeste 0 -- -- 79
2020-03-20 01:00:00 11.7 5 Nordeste 11 Nordeste 0 -- -- 79
2020-03-20 00:00:00 11.8 4 Nordeste 9 Nordeste 0 -- -- 79
2020-03-19 23:00:00 12.2 3 Norte 7 Norte 0 -- -- 78
2020-03-19 22:00:00 12.3 3 Norte 9 Nordeste 0 -- -- 78
2020-03-19 21:00:00 12.9 5 Nordeste 9 Nordeste 0 -- -- 78
2020-03-19 20:00:00 13 3 Nordeste 10 Nordeste 0 -- -- 76
2020-03-19 19:00:00 13.3 7 Este 17 Este 0 -- -- 72
2020-03-19 18:00:00 14.1 9 Este 19 Este 0 -- -- 67
2020-03-19 17:00:00 14.7 11 Este 22 Este 0 -- -- 63
2020-03-19 16:00:00 15 12 Nordeste 23 Nordeste 0 -- -- 64
2020-03-19 15:00:00 13.8 11 Nordeste 25 Nordeste 0 -- -- 69
2020-03-19 14:00:00 14.3 13 Nordeste 27 Nordeste 0 -- -- 69
2020-03-19 13:00:00 14 13 Nordeste 29 Nordeste 0 -- -- 70
2020-03-19 12:00:00 13.6 14 Nordeste 25 Norte 0 -- -- 71
2020-03-19 11:00:00 13 9 Norte 21 Nordeste 0 -- -- 74
2020-03-19 10:00:00 11.9 0 Calma 11 Sudeste 0 -- -- 77
2020-03-19 09:00:00 11.3 0 Calma -- -- 0 -- -- 78
2020-03-19 08:00:00 10.9 0 Calma -- -- 0 -- -- 80
2020-03-19 07:00:00 10.8 0 Calma -- -- 0 -- -- 80
2020-03-19 06:00:00 11.1 0 Calma -- -- 0 -- -- 81
2020-03-19 05:00:00 10.9 0 Calma 4 Noroeste 0 -- -- 81
2020-03-19 04:00:00 11 0 Calma 5 Noroeste 0 -- -- 81
2020-03-19 03:00:00 11 0 Calma -- -- 0 -- -- 81
2020-03-19 02:00:00 10.6 0 Calma -- -- 0 -- -- 81
2020-03-19 01:00:00 10.8 0 Calma -- -- 0 -- -- 80
2020-03-19 00:00:00 10.8 0 Calma -- -- 0 -- -- 80
2020-03-18 23:00:00 10.7 0 Calma -- -- 0 -- -- 78
2020-03-18 22:00:00 11.6 0 Calma -- -- 0 -- -- 77
2020-03-18 21:00:00 12.1 0 Calma 4 Noroeste 0 -- -- 76
2020-03-18 20:00:00 12.2 0 Calma 10 Este 0 -- -- 74
2020-03-18 19:00:00 3.3 7 Nordeste 16 Nordeste 0 -- -- 68
2020-03-18 18:00:00 4.9 8 Nordeste 19 Nordeste 0 -- -- 64
2020-03-18 17:00:00 4 12 Este 23 Este 0 -- -- 59
2020-03-18 16:00:00 4.9 13 Nordeste 25 Este 0 -- -- 58
2020-03-18 15:00:00 3.9 14 Nordeste 29 Nordeste 0 -- -- 57
2020-03-18 14:00:00 2.5 17 Nordeste 30 Nordeste 0 -- -- 53
2020-03-18 13:00:00 5 18 Nordeste 34 Nordeste 0 -- -- 50
2020-03-18 12:00:00 -0.9 13 Nordeste 23 Nordeste 0 -- -- 56
2020-03-18 11:00:00 2.7 13 Nordeste 26 Nordeste 0 -- -- 63
2020-03-18 10:00:00 -0.8 14 Nordeste 26 Norte 0 -- -- 65
2020-03-18 09:00:00 -2 9 Nordeste 20 Norte 0 -- -- 74
2020-03-18 08:00:00 -3.6 5 Nordeste 18 Nordeste 0 -- -- 78
2020-03-18 07:00:00 -4.3 8 Nordeste 19 Nordeste 0 -- -- 78
2020-03-18 06:00:00 -7.8 10 Nordeste 18 Nordeste 0 -- -- 78
2020-03-18 05:00:00 -8.9 8 Nordeste 18 Norte 0 -- -- 78
2020-03-18 04:00:00 -8.9 6 Norte 21 Norte 0 -- -- 78
2020-03-18 03:00:00 -12.6 10 Nordeste 22 Norte 0 -- -- 78
2020-03-18 02:00:00 -8.4 10 Nordeste 26 Nordeste 0 -- -- 80
2020-03-18 01:00:00 11.2 12 Nordeste 30 Nordeste 0 -- -- 80
2020-03-18 00:00:00 10.2 14 Nordeste 27 Nordeste 0 -- -- 81
2020-03-17 23:00:00 10 14 Nordeste 27 Norte 0 -- -- 81
2020-03-17 22:00:00 7.1 13 Nordeste 30 Norte 0 -- -- 81
2020-03-17 21:00:00 9.5 14 Nordeste 34 Nordeste 0 -- -- 81
2020-03-17 20:00:00 8.8 15 Nordeste 37 Nordeste 0 -- -- 82
2020-03-17 19:00:00 8.5 15 Norte 38 Nordeste 0.1 -- -- 83
2020-03-17 18:00:00 6.8 17 Nordeste 35 Nordeste 0.4 -- -- 83
2020-03-17 17:00:00 5.7 19 Nordeste 36 Norte 0 -- -- 84
2020-03-17 16:00:00 1.9 12 Nordeste 37 Nordeste 1.5 -- -- 84
2020-03-17 15:00:00 11.4 9 Sudoeste 18 Sudoeste 1 -- -- 83
2020-03-17 14:00:00 11.7 9 Sudoeste 15 Sudoeste 0 -- -- 83
2020-03-17 13:00:00 11.2 7 Sudoeste 15 Sudoeste 0.1 -- -- 83
2020-03-17 12:00:00 10.7 10 Sudoeste 14 Sudoeste 2.4 -- -- 83
2020-03-17 11:00:00 10.2 6 Sudoeste 13 Sudoeste 0 -- -- 83
2020-03-17 10:00:00 10.3 0 Calma 6 Sudoeste 0.1 -- -- 83
2020-03-17 09:00:00 9.4 0 Calma 12 Sudoeste 0.2 -- -- 83
2020-03-17 08:00:00 8.6 0 Calma 11 Sudoeste 0.2 -- -- 83
2020-03-17 07:00:00 8.6 3 Sudoeste 11 Sudoeste 0.2 -- -- 83
2020-03-17 06:00:00 8.4 0 Calma 14 Sudoeste 0.2 -- -- 83
2020-03-17 05:00:00 8.3 3 Sudoeste 10 Sudoeste 1.6 -- -- 84
2020-03-17 04:00:00 8.4 0 Calma -- -- 3.7 -- -- 83
2020-03-17 03:00:00 8.4 0 Calma 0 Calma 3.1 -- -- 82
2020-03-17 02:00:00 8.5 0 Calma -- -- 3.3 -- -- 81
2020-03-17 01:00:00 8.6 0 Calma 14 Oeste 0.5 -- -- 80
2020-03-17 00:00:00 8.6 7 Sudoeste 15 Sudoeste 0.4 -- -- 78
2020-03-16 23:00:00 8.6 8 Sudoeste 19 Sudoeste 0 -- -- 75
2020-03-16 22:00:00 8.3 9 Sudoeste 26 Sur 0.4 -- -- 78
2020-03-16 21:00:00 7.9 11 Sudoeste 24 Sudoeste 0.4 -- -- 78
2020-03-16 20:00:00 8 9 Sudoeste 22 Sudoeste 0.7 -- -- 78
2020-03-16 19:00:00 8.3 0 Calma 16 Sudoeste 0.8 -- -- 78
2020-03-16 18:00:00 8.6 0 Calma 10 Sudoeste 0.8 -- -- 77
2020-03-16 17:00:00 8.9 0 Calma 15 Sudoeste 0.3 -- -- 78
2020-03-16 16:00:00 9.4 0 Calma 14 Sudoeste 0.3 -- -- 74
2020-03-16 15:00:00 8.8 3 Sudoeste 24 Sur 0.8 -- -- 77
2020-03-16 14:00:00 8.7 9 Sudoeste 20 Sudoeste 1.5 -- -- 78
2020-03-16 13:00:00 9.7 4 Sudoeste 15 Sudoeste 0.3 -- -- 72
2020-03-16 12:00:00 9.8 2 Sudoeste 14 Oeste 0.3 -- -- 71
2020-03-16 11:00:00 14.8 5 Sudeste 14 Este 0 -- -- 68
2020-03-16 10:00:00 15.1 7 Este 23 Este 0 -- -- 68
2020-03-16 09:00:00 14.4 7 Este 15 Este 0 -- -- 74
2020-03-16 08:00:00 12.8 2 Sudeste 14 Sudeste 0 -- -- 81
2020-03-16 07:00:00 12.6 4 Este 8 Sudeste 0.3 -- -- 81
2020-03-16 06:00:00 12.3 0 Calma 8 Sudeste 0 -- -- 81
2020-03-16 05:00:00 12.5 3 Este 10 Este 0 -- -- 81
2020-03-16 04:00:00 12.7 0 Calma 7 Sudoeste 0 -- -- 78
2020-03-16 03:00:00 12.8 0 Calma 8 Sudoeste 0 -- -- 77
2020-03-16 02:00:00 13.2 0 Calma 16 Sudoeste 0 -- -- 77
2020-03-16 01:00:00 13.3 6 Sudoeste 12 Sudoeste 0 -- -- 77
2020-03-16 00:00:00 13 4 Sudoeste 9 Sudoeste 0 -- -- 78
2020-03-15 23:00:00 13 4 Sudoeste 12 Sudoeste 0 -- -- 76
2020-03-15 22:00:00 13.1 6 Sudoeste 17 Sudoeste 0 -- -- 74
2020-03-15 21:00:00 12.8 2 Sudoeste 13 Este 0 -- -- 72
2020-03-15 20:00:00 13.3 9 Este 22 Este 0 -- -- 70
2020-03-15 19:00:00 14.1 13 Este 29 Este 0 -- -- 69
2020-03-15 18:00:00 14.9 15 Este 33 Este 0 -- -- 63
2020-03-15 17:00:00 16.2 14 Este 32 Sudeste 0 -- -- 58
2020-03-15 16:00:00 17.2 14 Este 34 Este 0 -- -- 56
2020-03-15 15:00:00 16.7 14 Este 33 Este 0 -- -- 56
2020-03-15 14:00:00 17.3 15 Este 27 Este 0 -- -- 54
2020-03-15 13:00:00 17.9 9 Este 21 Este 0 -- -- 50
2020-03-15 12:00:00 16.5 8 Este 17 Este 0 -- -- 57
2020-03-15 11:00:00 15.2 3 Norte 8 Norte 0 -- -- 60
2020-03-15 10:00:00 14.5 2 Norte 7 Este 0 -- -- 63
2020-03-15 09:00:00 13.5 0 Calma -- -- 0 -- -- 73
2020-03-15 08:00:00 11.3 0 Calma -- -- 0 -- -- 78
2020-03-15 07:00:00 11.5 0 Calma -- -- 0 -- -- 76
2020-03-15 06:00:00 12.5 0 Calma -- -- 0 -- -- 76
2020-03-15 05:00:00 12.8 0 Calma -- -- 0 -- -- 76
2020-03-15 04:00:00 12.7 0 Calma -- -- 0 -- -- 78
2020-03-15 03:00:00 12.7 0 Calma 4 Sudoeste 0 -- -- 78
2020-03-15 02:00:00 12.4 0 Calma -- -- 0 -- -- 80
2020-03-15 01:00:00 12.5 0 Calma -- -- 0 -- -- 80
2020-03-15 00:00:00 12.6 0 Calma -- -- 0 -- -- 81
2020-03-14 23:00:00 12.1 0 Calma 6 Sudoeste 0 -- -- 80
2020-03-14 22:00:00 11.7 0 Calma 7 Noroeste 0 -- -- 78
2020-03-14 21:00:00 12.3 2 Noroeste 8 Este 0 -- -- 78
2020-03-14 20:00:00 13.1 6 Este 16 Este 0 -- -- 78
2020-03-14 19:00:00 14.1 9 Este 24 Este 0 -- -- 75
2020-03-14 18:00:00 15.4 13 Este 28 Este 0 -- -- 63
2020-03-14 17:00:00 16.5 16 Este 30 Este 0 -- -- 54
2020-03-14 16:00:00 17 16 Este 26 Este 0 -- -- 52
2020-03-14 15:00:00 17.6 12 Este 23 Este 0 -- -- 48
2020-03-14 14:00:00 18.2 13 Este 23 Este 0 -- -- 47
2020-03-14 13:00:00 18.7 10 Este 21 Este 0 -- -- 47
2020-03-14 12:00:00 18.1 6 Sudeste 17 Sudeste 0 -- -- 48
2020-03-14 11:00:00 16.4 5 Nordeste 11 Norte 0 -- -- 53
2020-03-14 10:00:00 15.5 0 Calma 15 Sudoeste 0 -- -- 62
2020-03-14 09:00:00 13.1 5 Sudoeste 13 Sudoeste 0 -- -- 72
2020-03-14 08:00:00 11.4 6 Sudoeste 13 Sudoeste 0 -- -- 79
2020-03-14 07:00:00 11 6 Sudoeste 13 Sudoeste 0 -- -- 80
2020-03-14 06:00:00 11.3 5 Sudoeste 13 Sudoeste 0 -- -- 78
2020-03-14 05:00:00 11.4 4 Sudoeste 13 Sudoeste 0 -- -- 78
2020-03-14 04:00:00 -- -- -- -- -- -- -- -- --
2020-03-14 03:00:00 -- -- -- -- -- -- -- -- --
2020-03-14 02:00:00 -- -- -- -- -- -- -- -- --
2020-03-14 01:00:00 -- -- -- -- -- -- -- -- --
2020-03-14 00:00:00 -- -- -- -- -- -- -- -- --
2020-03-13 23:00:00 -- -- -- -- -- -- -- -- --
2020-03-13 22:00:00 -- -- -- -- -- -- -- -- --
2020-03-13 21:00:00 -- -- -- -- -- -- -- -- --
2020-03-13 20:00:00 -- -- -- -- -- -- -- -- --
2020-03-13 19:00:00 -- -- -- -- -- -- -- -- --
2020-03-13 18:00:00 -- -- -- -- -- -- -- -- --
2020-03-13 17:00:00 -- -- -- -- -- -- -- -- --
2020-03-13 16:00:00 -- -- -- -- -- -- -- -- --
2020-03-13 15:00:00 -- -- -- -- -- -- -- -- --
2020-03-13 14:00:00 -- -- -- -- -- -- -- -- --
2020-03-13 13:00:00 -- -- -- -- -- -- -- -- --
2020-03-13 12:00:00 -- -- -- -- -- -- -- -- --
2020-03-13 11:00:00 -- -- -- -- -- -- -- -- --
2020-03-13 10:00:00 -- -- -- -- -- -- -- -- --
2020-03-13 09:00:00 -- -- -- -- -- -- -- -- --
2020-03-13 08:00:00 -- -- -- -- -- -- -- -- --
2020-03-13 07:00:00 -- -- -- -- -- -- -- -- --
2020-03-13 06:00:00 -- -- -- -- -- -- -- -- --
2020-03-13 05:00:00 12.6 0 Calma -- -- 0 -- -- 82
2020-03-13 04:00:00 12.4 0 Calma -- -- 0 -- -- 83
2020-03-13 03:00:00 12.4 0 Calma -- -- 0 -- -- 83
2020-03-13 02:00:00 12.4 0 Calma -- -- 0 -- -- 83
2020-03-13 01:00:00 11.3 0 Calma -- -- 0 -- -- 81
2020-03-13 00:00:00 13.1 0 Calma 8 Sudoeste 0 -- -- 81
2020-03-12 23:00:00 13.7 0 Calma -- -- 0 -- -- 82
2020-03-12 22:00:00 13.7 0 Calma 3 Sudoeste 0 -- -- 82
2020-03-12 21:00:00 13.3 0 Calma 11 Nordeste 0 -- -- 82
2020-03-12 20:00:00 13.4 6 Nordeste 14 Noroeste 0 -- -- 82
2020-03-12 19:00:00 14.5 4 Norte 16 Nordeste 0 -- -- 78
2020-03-12 18:00:00 16.4 7 Norte 17 Nordeste 0 -- -- 66
2020-03-12 17:00:00 19.2 10 Nordeste 19 Nordeste 0 -- -- 48
2020-03-12 16:00:00 19.4 12 Nordeste 19 Norte 0 -- -- 48
2020-03-12 15:00:00 19.5 12 Nordeste 20 Nordeste 0 -- -- 47
2020-03-12 14:00:00 21 9 Nordeste 19 Este 0 -- -- 44
2020-03-12 13:00:00 21.2 6 Nordeste 16 Este 0 -- -- 43
2020-03-12 12:00:00 19.8 5 Nordeste 13 Nordeste 0 -- -- 46
2020-03-12 11:00:00 18.2 5 Nordeste 12 Nordeste 0 -- -- 51
2020-03-12 10:00:00 15.8 5 Nordeste 10 Nordeste 0 -- -- 59
2020-03-12 09:00:00 11.8 0 Calma 4 Sudoeste 0 -- -- 75
2020-03-12 08:00:00 8.3 0 Calma 4 Sudoeste 0 -- -- 81
2020-03-12 07:00:00 7.3 0 Calma -- -- 0 -- -- 79
2020-03-12 06:00:00 8.1 0 Calma 5 Sudoeste 0 -- -- 77
2020-03-12 05:00:00 8.3 0 Calma -- -- 0 -- -- 75
2020-03-12 04:00:00 10.3 0 Calma 9 Sudoeste 0 -- -- 68
2020-03-12 03:00:00 13.4 5 Sudoeste 15 Sudoeste 0 -- -- 60
2020-03-12 02:00:00 9.8 0 Calma 3 Sudoeste 0 -- -- 75
2020-03-12 01:00:00 11.3 0 Calma 9 Sudoeste 0 -- -- 72
2020-03-12 00:00:00 12.2 0 Calma 9 Sur 0 -- -- 73
2020-03-11 23:00:00 10.7 3 Sudoeste 9 Sudoeste 0 -- -- 76
2020-03-11 22:00:00 12.6 0 Calma 5 Sudoeste 0 -- -- 76
2020-03-11 21:00:00 13.4 0 Calma -- -- 0 -- -- 75
2020-03-11 20:00:00 13.9 0 Calma 12 Nordeste 0 -- -- 72
2020-03-11 19:00:00 15.2 7 Nordeste 19 Nordeste 0 -- -- 66
2020-03-11 18:00:00 18.1 11 Nordeste 23 Este 0 -- -- 48
2020-03-11 17:00:00 20.5 13 Este 29 Este 0 -- -- 35
2020-03-11 16:00:00 21 17 Este 30 Este 0 -- -- 34
2020-03-11 15:00:00 21.2 17 Este 28 Este 0 -- -- 34
2020-03-11 14:00:00 22.8 13 Este 24 Sudeste 0 -- -- 33
2020-03-11 13:00:00 23.3 12 Este 21 Este 0 -- -- 33
2020-03-11 12:00:00 23.4 6 Este 13 Este 0 -- -- 34
2020-03-11 11:00:00 21.7 5 Este 12 Este 0 -- -- 39
2020-03-11 10:00:00 18.5 3 Nordeste 10 Nordeste 0 -- -- 46
2020-03-11 09:00:00 13.2 0 Calma -- -- 0 -- -- 65
2020-03-11 08:00:00 8.4 0 Calma 5 Sudoeste 0 -- -- 83
2020-03-11 07:00:00 7.1 0 Calma 5 Sudoeste 0 -- -- 83
2020-03-11 06:00:00 7 0 Calma 8 Sudoeste 0 -- -- 82
2020-03-11 05:00:00 7.6 0 Calma 6 Sudoeste 0 -- -- 81
2020-03-11 04:00:00 8 0 Calma 7 Sudeste 0 -- -- 80
2020-03-11 03:00:00 9 0 Calma 7 Este 0 -- -- 78
2020-03-11 02:00:00 9.4 2 Sudoeste 5 Sudoeste 0 -- -- 79
2020-03-11 01:00:00 10.3 0 Calma 3 Oeste 0 -- -- 77
2020-03-11 00:00:00 10.7 0 Calma 10 Sudoeste 0 -- -- 75
2020-03-10 23:00:00 12.7 4 Sudoeste 8 Sudoeste 0 -- -- 73
2020-03-10 22:00:00 12.6 0 Calma 5 Sudoeste 0 -- -- 71
2020-03-10 21:00:00 13.4 0 Calma 9 Noroeste 0 -- -- 64
2020-03-10 20:00:00 14.8 2 Noroeste 11 Este 0 -- -- 59
2020-03-10 19:00:00 17.4 6 Este 24 Este 0 -- -- 48
2020-03-10 18:00:00 19.2 10 Sudeste 26 Este 0 -- -- 41
2020-03-10 17:00:00 20.6 10 Este 21 Este 0 -- -- 40
2020-03-10 16:00:00 21.8 7 Este 16 Este 0 -- -- 39
2020-03-10 15:00:00 19.2 8 Sudeste 18 Este 0 -- -- 45
2020-03-10 14:00:00 19.5 4 Este 18 Sudoeste 0 -- -- 44
2020-03-10 13:00:00 19.3 6 Sudoeste 21 Sudoeste 0 -- -- 35
2020-03-10 12:00:00 18.8 8 Sudoeste 20 Sudoeste 0 -- -- 35
2020-03-10 11:00:00 18.1 7 Sudoeste 16 Oeste 0 -- -- 36
2020-03-10 10:00:00 16.8 6 Sudoeste 18 Sudoeste 0 -- -- 39
2020-03-10 09:00:00 12.4 0 Calma 7 Sudoeste 0 -- -- 55
2020-03-10 08:00:00 7.2 0 Calma 8 Sudoeste 0 -- -- 77
2020-03-10 07:00:00 6.2 0 Calma 9 Sudoeste 0 -- -- 75
2020-03-10 06:00:00 6.6 3 Oeste 5 Sudoeste 0 -- -- 73
2020-03-10 05:00:00 7.2 2 Sudoeste 16 Este 0 -- -- 73
2020-03-10 04:00:00 6.8 2 Oeste 6 Sudoeste 0 -- -- 73
2020-03-10 03:00:00 7.4 0 Calma 9 Sudoeste 0 -- -- 69
2020-03-10 02:00:00 9.3 0 Calma 6 Sudoeste 0 -- -- 65
2020-03-10 01:00:00 11.7 2 Oeste 15 Sudoeste 0 -- -- 60
2020-03-10 00:00:00 10.4 0 Calma 10 Este 0 -- -- 66
2020-03-09 23:00:00 11.7 3 Sudeste 10 Este 0 -- -- 62
2020-03-09 22:00:00 12.7 4 Nordeste 13 Este 0 -- -- 52
2020-03-09 21:00:00 14 0 Calma 10 Este 0 -- -- 47
2020-03-09 20:00:00 15.7 0 Calma 8 Norte 0 -- -- 43
2020-03-09 19:00:00 17.6 0 Calma 11 Este 0 -- -- 40
2020-03-09 18:00:00 19.9 4 Sudeste 18 Este 0 -- -- 35
2020-03-09 17:00:00 22.9 2 Noroeste 17 Noroeste 0 -- -- 28
2020-03-09 16:00:00 21.8 4 Norte 13 Norte 0 -- -- 29
2020-03-09 15:00:00 20.6 0 Calma 12 Noroeste 0 -- -- 33
2020-03-09 14:00:00 19.6 2 Nordeste 8 Nordeste 0 -- -- 36
2020-03-09 13:00:00 18.3 2 Norte 15 Sudoeste 0 -- -- 38
2020-03-09 12:00:00 17.4 3 Sudoeste 18 Sudoeste 0 -- -- 43
2020-03-09 11:00:00 15.6 9 Sudoeste 22 Sudoeste 0 -- -- 47
2020-03-09 10:00:00 14.3 8 Sudoeste 30 Oeste 0 -- -- 51
2020-03-09 09:00:00 12.9 9 Sudoeste 19 Sudoeste 0 -- -- 53
2020-03-09 08:00:00 12.3 10 Sudoeste 21 Sudoeste 0 -- -- 54
2020-03-09 07:00:00 11.9 8 Sudoeste 17 Sudoeste 0 -- -- 54
2020-03-09 06:00:00 11.9 8 Sudoeste 15 Sudoeste 0 -- -- 54
2020-03-09 05:00:00 11.9 6 Sudoeste 10 Sudoeste 0 -- -- 54
2020-03-09 04:00:00 13.4 4 Sudoeste 14 Sudoeste 0 -- -- 48
2020-03-09 03:00:00 13.8 4 Sudoeste 15 Sudoeste 0 -- -- 48
2020-03-09 02:00:00 14 5 Sudoeste 15 Sudoeste 0 -- -- 51
2020-03-09 01:00:00 11.1 3 Sudoeste 14 Sudoeste 0 -- -- 67
2020-03-09 00:00:00 12.6 6 Sudoeste 15 Sudoeste 0 -- -- 65
2020-03-08 23:00:00 12 2 Oeste 7 Sudoeste 0 -- -- 69
2020-03-08 22:00:00 13.1 0 Calma 7 Sudoeste 0 -- -- 68
2020-03-08 21:00:00 13.5 0 Calma 6 Noroeste 0 -- -- 67
2020-03-08 20:00:00 14.2 0 Calma 15 Noroeste 0 -- -- 64
2020-03-08 19:00:00 17.2 4 Noroeste 17 Sudoeste 0 -- -- 51
2020-03-08 18:00:00 21.1 4 Sudoeste 24 Este 0 -- -- 32
2020-03-08 17:00:00 20.4 9 Este 26 Este 0 -- -- 36
2020-03-08 16:00:00 19.6 10 Sudeste 28 Este 0 -- -- 36
2020-03-08 15:00:00 20 9 Sudeste 25 Este 0 -- -- 35
2020-03-08 14:00:00 21.4 7 Sudoeste 27 Sudoeste 0 -- -- 30
2020-03-08 13:00:00 21 2 Oeste 23 Sudoeste 0 -- -- 32
2020-03-08 12:00:00 18.8 5 Sudoeste 17 Sudoeste 0 -- -- 37
2020-03-08 11:00:00 16.4 7 Sudoeste 21 Sudoeste 0 -- -- 41
2020-03-08 10:00:00 14.7 10 Sudoeste 23 Sudoeste 0 -- -- 45
2020-03-08 09:00:00 12.5 10 Sudoeste 21 Sudoeste 0 -- -- 50
2020-03-08 08:00:00 10.7 10 Sudoeste 19 Sudoeste 0 -- -- 54
2020-03-08 07:00:00 10.5 10 Sudoeste 21 Sudoeste 0 -- -- 53
2020-03-08 06:00:00 10.4 9 Sudoeste 20 Sudoeste 0 -- -- 54
2020-03-08 05:00:00 10.7 8 Sudoeste 16 Sudoeste 0 -- -- 53
2020-03-08 04:00:00 10.7 9 Sudoeste 17 Oeste 0 -- -- 54
2020-03-08 03:00:00 10.6 7 Sudoeste 14 Sudoeste 0 -- -- 54
2020-03-08 02:00:00 10 4 Sudoeste 12 Sudoeste 0 -- -- 57
2020-03-08 01:00:00 11.3 7 Sudoeste 16 Sudoeste 0 -- -- 54
2020-03-08 00:00:00 10.7 9 Sudoeste 15 Sudoeste 0 -- -- 57
2020-03-07 23:00:00 10.8 5 Sudoeste 12 Sudoeste 0 -- -- 58
2020-03-07 22:00:00 9.4 4 Sudoeste 9 Sudoeste 0 -- -- 60
2020-03-07 21:00:00 11.2 4 Sur 17 Sudeste 0 -- -- 49
2020-03-07 20:00:00 12.4 6 Sudeste 18 Sudeste 0 -- -- 49
2020-03-07 19:00:00 13.7 6 Sudeste 24 Sudeste 0 -- -- 44
2020-03-07 18:00:00 16.2 7 Sudeste 19 Sudeste 0 -- -- 38
2020-03-07 17:00:00 18.1 9 Sudeste 24 Este 0 -- -- 37
2020-03-07 16:00:00 18.3 6 Nordeste 21 Norte 0 -- -- 35
2020-03-07 15:00:00 18.4 2 Oeste 17 Sudoeste 0 -- -- 35
2020-03-07 14:00:00 18 2 Oeste 13 Norte 0 -- -- 37
2020-03-07 13:00:00 16 2 Noroeste 13 Sudoeste 0 -- -- 38
2020-03-07 12:00:00 13.9 3 Oeste 22 Oeste 0 -- -- 40
2020-03-07 11:00:00 12.8 3 Oeste 17 Oeste 0 -- -- 40
2020-03-07 10:00:00 11.7 3 Oeste 14 Sudoeste 0 -- -- 41
2020-03-07 09:00:00 11.2 3 Sudoeste 15 Sudoeste 0 -- -- 42
2020-03-07 08:00:00 9.3 3 Oeste 21 Sudoeste 0 -- -- 44
2020-03-07 07:00:00 8.4 6 Sudoeste 21 Sudoeste 0 -- -- 44
2020-03-07 06:00:00 9.2 4 Oeste 19 Sudoeste 0 -- -- 42
2020-03-07 05:00:00 9.9 4 Sudoeste 18 Sudoeste 0 -- -- 39
2020-03-07 04:00:00 9.8 3 Oeste 13 Sudoeste 0 -- -- 39
2020-03-07 03:00:00 9.4 3 Oeste 7 Oeste 0 -- -- 40
2020-03-07 02:00:00 9.7 4 Sudoeste 12 Sudoeste 0 -- -- 39
2020-03-07 01:00:00 9.7 2 Noroeste 14 Noroeste 0 -- -- 39
2020-03-07 00:00:00 10 2 Oeste 12 Noroeste 0 -- -- 37
2020-03-06 23:00:00 12.4 2 Noroeste 21 Norte 0 -- -- 34
2020-03-06 22:00:00 11.8 2 Oeste 10 Noroeste 0 -- -- 35
2020-03-06 21:00:00 13.1 5 Noroeste 15 Noroeste 0 -- -- 33
2020-03-06 20:00:00 12.5 3 Noroeste 19 Oeste 0 -- -- 34
2020-03-06 19:00:00 13.7 4 Noroeste 35 Noroeste 0 -- -- 33
2020-03-06 18:00:00 14.9 7 Noroeste 38 Noroeste 0 -- -- 35
2020-03-06 17:00:00 15.2 10 Noroeste 37 Noroeste 0 -- -- 35
2020-03-06 16:00:00 16.6 7 Noroeste 34 Norte 0 -- -- 31
2020-03-06 15:00:00 17.6 5 Oeste 29 Noroeste 0 -- -- 30
2020-03-06 14:00:00 17.7 5 Oeste 38 Noroeste 0 -- -- 31
2020-03-06 13:00:00 18.1 5 Oeste 21 Noroeste 0 -- -- 34
2020-03-06 12:00:00 15.5 6 Oeste 39 Sudoeste 0 -- -- 40
2020-03-06 11:00:00 14.7 9 Sudoeste 35 Sudoeste 0 -- -- 42
2020-03-06 10:00:00 13 6 Oeste 37 Sudoeste 0 -- -- 46
2020-03-06 09:00:00 12.1 10 Sudoeste 34 Sudoeste 0 -- -- 47
2020-03-06 08:00:00 11.5 13 Sudoeste 25 Sudoeste 0 -- -- 47
2020-03-06 07:00:00 11.3 13 Sudoeste 22 Sudoeste 0 -- -- 48
2020-03-06 06:00:00 11.5 7 Sudoeste 19 Sudoeste 0 -- -- 48
2020-03-06 05:00:00 12 4 Sudoeste 22 Sudoeste 0 -- -- 48
2020-03-06 04:00:00 13.1 6 Sudoeste 33 Sudoeste 0 -- -- 47
2020-03-06 03:00:00 13.6 4 Sudoeste 20 Oeste 0 -- -- 45
2020-03-06 02:00:00 14.4 7 Sudoeste 23 Sudoeste 0 -- -- 44
2020-03-06 01:00:00 15 6 Sudoeste 24 Sudoeste 0 -- -- 43
2020-03-06 00:00:00 15.4 5 Sudoeste 18 Sur 0 -- -- 41
2020-03-05 23:00:00 16.3 5 Sudoeste 19 Sudoeste 0 -- -- 39
2020-03-05 22:00:00 15.8 6 Sudoeste 15 Sudoeste 0 -- -- 38
2020-03-05 21:00:00 17.4 4 Sudoeste 16 Sudoeste 0 -- -- 36
2020-03-05 20:00:00 18.3 5 Oeste 21 Sudoeste 0 -- -- 37
2020-03-05 19:00:00 18.6 2 Oeste 18 Noroeste 0 -- -- 38
2020-03-05 18:00:00 20.2 4 Oeste 28 Sudoeste 0 -- -- 40
2020-03-05 17:00:00 20.4 9 Sudoeste 33 Sudoeste 0 -- -- 41
2020-03-05 16:00:00 20.9 9 Sudoeste 32 Sudoeste 0 -- -- 40
2020-03-05 15:00:00 20.9 9 Oeste 37 Sudoeste 0 -- -- 40
2020-03-05 14:00:00 21.7 10 Sudoeste 34 Sur 0 -- -- 39
2020-03-05 13:00:00 21.9 3 Oeste 38 Sudoeste 0 -- -- 42
2020-03-05 12:00:00 19.8 7 Oeste 35 Sudoeste 0 -- -- 43
2020-03-05 11:00:00 18.9 4 Oeste 23 Oeste 0 -- -- 48
2020-03-05 10:00:00 17.1 6 Sudoeste 23 Sudoeste 0 -- -- 50
2020-03-05 09:00:00 15.3 7 Sudoeste 24 Sudoeste 0 -- -- 53
2020-03-05 08:00:00 14 4 Sudoeste 21 Sudoeste 0 -- -- 53
2020-03-05 07:00:00 13.9 10 Sudoeste 22 Sudoeste 0 -- -- 53
2020-03-05 06:00:00 13.6 5 Sudoeste 22 Sudoeste 0 -- -- 51
2020-03-05 05:00:00 13.6 6 Sudoeste 18 Sudoeste 0 -- -- 53
2020-03-05 04:00:00 13.9 9 Sudoeste 22 Sudoeste 0 -- -- 51
2020-03-05 03:00:00 14.2 5 Sudoeste 18 Sudoeste 0 -- -- 51
2020-03-05 02:00:00 15.5 9 Sudoeste 25 Sudoeste 0 -- -- 48
2020-03-05 01:00:00 15.7 8 Sudoeste 19 Sudoeste 0 -- -- 47
2020-03-05 00:00:00 16.1 9 Sudoeste 23 Sudoeste 0 -- -- 47